This demonstration page uses our WeatherBlox Daily Observations layout. Learn more.

Left ArrowRight Arrow

Hourly Observations for August 20, 2020

Temp ( °F °C ) Dew Point ( °F °C ) Humidity (%) Winds ( mph kmh ) Pressure ( in mb ) Visibility ( mi km ) Precip ( " mm )
12:54 am 00:54 Clear 66 18.9 60 15.6 81 81 SSE 10 17 29.96 1015 10 16.0934 0 0
1:54 am 01:54 Clear 64 17.8 59 15 84 84 S 8 13 29.97 1015 10 16.0934 0 0
2:54 am 02:54 Clear 64 17.8 59 15 84 84 SSE 7 11 29.95 1014 10 16.0934 0 0
3:54 am 03:54 Clear 64 17.8 58 14.4 81 81 SSE 5 7 29.96 1015 10 16.0934 0 0
4:54 am 04:54 Clear 62 16.7 57 13.9 84 84 S 6 9 29.95 1014 10 16.0934 0 0
5:54 am 05:54 Clear 61 16.1 57 13.9 87 87 S 5 7 29.95 1014 10 16.0934 0 0
6:54 am 06:54 Sunny 62 16.7 57 13.9 84 84 SSE 5 7 29.96 1014 9 14.48406 0 0
7:54 am 07:54 Sunny 65 18.3 59 15 81 81 S 7 11 29.96 1015 9 14.48406 0 0
8:54 am 08:54 Sunny 71 21.7 61 16.1 71 71 S 12 19 29.94 1014 9 14.48406 0 0
9:54 am 09:54 Sunny 75 23.9 61 16.1 62 62 S 10 17 29.94 1014 9 14.48406 0 0
10:54 am 10:54 Sunny 79 26.1 62 16.7 56 56 S 12 19 29.93 1014 9 14.48406 0 0
11:54 am 11:54 Sunny 81 27.2 62 16.7 53 53 SSW 16 26 29.91 1013 8 12.87472 0 0
12:54 pm 12:54 Sunny 82 27.8 62 16.7 51 51 S 13 20 29.88 1012 9 14.48406 0 0
1:54 pm 13:54 Sunny 83 28.3 63 17.2 51 51 S 16 26 29.87 1011 9 14.48406 0 0
2:54 pm 14:54 Sunny 85 29.4 62 16.7 46 46 S 13 20 29.86 1011 9 14.48406 0 0
3:54 pm 15:54 Sunny 87 30.6 63 17.2 45 45 S 16 26 29.84 1010 10 16.0934 0 0
4:54 pm 16:54 Sunny 87 30.6 62 16.7 43 43 S 15 24 29.83 1010 9 14.48406 0 0
5:54 pm 17:54 Sunny 86 30 62 16.7 45 45 S 13 20 29.82 1010 10 16.0934 0 0
6:54 pm 18:54 Sunny 83 28.3 61 16.1 48 48 S 12 19 29.82 1010 10 16.0934 0 0
7:54 pm 19:54 Sunny 81 27.2 63 17.2 54 54 SSE 10 17 29.82 1010 9 14.48406 0 0
8:54 pm 20:54 Clear 77 25 63 17.2 62 62 S 10 17 29.83 1010 10 16.0934 0 0
9:54 pm 21:54 Clear 77 25 62 16.7 60 60 SSE 14 22 29.83 1010 10 16.0934 0 0
10:54 pm 22:54 Clear 74 23.3 62 16.7 67 67 S 10 17 29.84 1010 10 16.0934 0 0
11:54 pm 23:54 Clear 72 22.2 61 16.1 68 68 S 12 19 29.83 1010 10 16.0934 0 0

Powered by AerisWeather